Tracking 17149 objects as of 22-May-2015
HD Live streaming from Space Station

SL-18 DEB


SL-18 DEB is no longer on orbit
SL-18 DEB is classified as:


NORAD ID: 26707
Int'l Code: 2001-007F
Perigee: N/A
Apogee: N/A
Inclination: N/A
Period: N/A
Semi major axis: N/A
RCS: N/A
Launch date: February 20, 2001
Source: Commonwealth of Independent States (former USSR) (CIS)
Decay date: 2001-03-12

Note: This is SATELLITE DEBRIS
Your satellite tracking list
Your tracking list is empty





NASA's NSSDC Master Catalog

Two Line Element Set (TLE):
1 26707U 01007F   01071.26600283 +.99999999 +00000-0 +10661-0 0  9992
2 26707 097.8084 082.1829 0030382 185.2747 175.1339 16.02404494003006

Source of the keplerian elements: AFSPC

N2YO: 392